Date String (YYYY-MM-DD hh:mm:ss) UTC,Instrument flags,Ambient pressure (hPa),Sample flow (lpm),Bypass flow (lpm),Sample temperature (°C),Ambient temperature (°C),ASC tube jacket temperature (°C),LED temperature (°C),Box temperature (°C),Sample RH (%),Span deviation,Mass concentration (μg/m³),Mass concentration (μg/m³),Mass concentration (μg/m³)
DateTimeUTC,F1_M11,P_M11,Q1_M11,Q2_M11,T1_M11,T2_M11,T3_M11,T4_M11,T5_M11,U1_M11,ZSPAN_M11,X2_M11,X0_M11,X1_M11
2021-09-08 17:00:00,,0833.2,5.01,0.00,29.9,28.8,00.0,38.7,31.8,19.2,0001.5,0038.05,0054.59,0035.16
2021-09-08 17:01:00,,0833.2,5.00,0.00,29.9,28.6,00.0,38.8,31.8,18.9,0001.8,0038.07,0056.70,0035.17
2021-09-08 17:02:00,,0833.1,5.00,0.00,29.8,27.0,00.0,38.8,31.6,18.8,0002.0,0038.15,0057.94,0035.23
2021-09-08 17:03:00,,0833.2,5.00,0.00,29.8,26.3,00.0,38.7,31.4,19.1,0002.1,0038.18,0058.74,0035.27
2021-09-08 17:04:00,,0833.2,5.00,0.00,29.7,26.8,00.0,38.7,31.4,19.3,0002.1,0038.21,0060.94,0035.31
2021-09-08 17:05:00,,0833.1,4.99,0.00,29.7,27.2,00.0,38.7,31.4,19.0,0002.1,0038.21,0060.38,0035.36
2021-09-08 17:06:00,,0833.2,5.01,0.00,29.7,27.6,00.0,38.7,31.5,19.0,0002.0,0038.21,0059.60,0035.41
2021-09-08 17:07:00,,0833.1,5.00,0.00,29.7,28.0,00.0,38.7,31.6,18.2,0001.9,0038.22,0059.17,0035.42
2021-09-08 17:08:00,,0833.1,5.00,0.00,29.8,28.3,00.0,38.7,31.7,18.2,0001.9,0038.15,0058.64,0035.42
2021-09-08 17:09:00,,0833.2,5.00,0.00,29.8,28.6,00.0,38.7,31.7,18.3,0001.8,0038.12,0059.12,0035.45
2021-09-08 17:10:00,,0833.2,5.00,0.00,29.8,28.8,00.0,38.7,31.7,18.5,0001.7,0038.18,0059.66,0035.48
2021-09-08 17:11:00,,0833.1,5.00,0.00,29.9,28.7,00.0,38.7,31.7,17.7,0001.7,0038.22,0060.08,0035.51
2021-09-08 17:12:00,,0833.1,5.00,0.00,29.8,27.2,00.0,38.7,31.3,17.5,0001.7,0038.26,0058.76,0035.56
2021-09-08 17:13:00,,0833.2,4.99,0.00,29.6,26.3,00.0,38.7,31.0,17.8,0001.5,0038.24,0058.44,0035.55
2021-09-08 17:14:00,,0833.2,5.00,0.00,29.6,26.6,00.0,38.7,31.1,17.7,0001.2,0038.29,0059.51,0035.57
2021-09-08 17:15:00,,0833.2,5.01,0.00,29.6,27.0,00.0,38.7,31.2,18.2,0001.2,0038.21,0058.59,0035.55
2021-09-08 17:16:00,,0833.2,4.98,0.00,29.5,27.4,00.0,38.7,31.2,18.2,0001.3,0038.19,0058.39,0035.52
2021-09-08 17:17:00,,0833.1,5.01,0.00,29.6,27.8,00.0,38.6,31.3,18.1,0001.5,0038.23,0058.69,0035.54
2021-09-08 17:18:00,,0833.1,5.00,0.00,29.6,28.1,00.0,38.6,31.4,18.0,0001.3,0038.27,0059.60,0035.58
2021-09-08 17:19:00,,0833.1,5.00,0.00,29.7,28.4,00.0,38.6,31.5,17.6,0001.1,0038.25,0060.49,0035.61
2021-09-08 17:20:00,,0833.2,5.00,0.00,29.7,28.6,00.0,38.7,31.6,17.6,0001.2,0038.28,0060.12,0035.66
2021-09-08 17:21:00,,0833.2,5.00,0.00,29.7,28.6,00.0,38.7,31.6,17.6,0001.4,0038.26,0059.70,0035.66
2021-09-08 17:22:00,,0833.2,5.01,0.00,29.7,27.3,00.0,38.7,31.2,17.9,0001.4,0038.20,0058.96,0035.68
2021-09-08 17:23:00,,0833.1,5.01,0.00,29.5,26.1,00.0,38.7,30.8,18.3,0001.2,0038.16,0059.33,0035.70
2021-09-08 17:24:00,,0833.2,5.00,0.00,29.5,26.4,00.0,38.6,30.9,18.2,0001.2,0038.14,0058.69,0035.71
2021-09-08 17:25:00,,0833.2,4.99,0.00,29.4,26.8,00.0,38.6,31.0,18.0,0001.7,0038.05,0058.38,0035.66
2021-09-08 17:26:00,,0833.1,5.00,0.00,29.4,27.2,00.0,38.6,31.1,18.3,0001.8,0038.03,0058.10,0035.63
2021-09-08 17:27:00,,0833.2,5.01,0.00,29.4,27.6,00.0,38.6,31.2,18.3,0001.9,0037.98,0057.98,0035.60
2021-09-08 17:28:00,,0833.1,5.00,0.00,29.5,27.9,00.0,38.5,31.3,18.2,0001.9,0037.92,0058.17,0035.55
2021-09-08 17:29:00,,0833.1,4.99,0.00,29.5,28.2,00.0,38.5,31.4,18.4,0002.0,0037.87,0057.42,0035.52
2021-09-08 17:30:00,,0833.2,5.00,0.00,29.6,28.4,00.0,38.6,31.4,18.5,0002.0,0037.86,0056.64,0035.46
2021-09-08 17:31:00,,0833.1,5.00,0.00,29.6,28.6,00.0,38.6,31.5,18.4,0001.9,0037.82,0056.05,0035.43
2021-09-08 17:32:00,,0833.1,5.00,0.00,29.7,28.8,00.0,38.6,31.6,18.3,0001.9,0037.82,0056.32,0035.38
2021-09-08 17:33:00,,0833.1,5.00,0.00,29.7,28.9,00.0,38.6,31.6,18.2,0002.0,0037.79,0058.69,0035.31
2021-09-08 17:34:00,,0833.1,5.01,0.00,29.7,27.9,00.0,38.7,31.4,18.3,0002.2,0037.80,0059.38,0035.25
2021-09-08 17:35:00,,0833.1,5.00,0.00,29.6,26.3,00.0,38.6,30.9,18.6,0001.8,0037.75,0058.78,0035.22
2021-09-08 17:36:00,,0833.1,5.00,0.00,29.5,26.3,00.0,38.6,30.9,19.0,0001.5,0037.71,0058.22,0035.20
2021-09-08 17:37:00,,0833.1,5.01,0.00,29.4,26.8,00.0,38.6,31.0,19.2,0001.1,0037.62,0057.53,0035.15
2021-09-08 17:38:00,,0833.1,4.99,0.00,29.4,27.2,00.0,38.6,31.1,19.5,0001.0,0037.64,0058.57,0035.15
2021-09-08 17:39:00,,0833.1,5.00,0.00,29.5,27.6,00.0,38.6,31.2,19.6,0001.1,0037.67,0058.46,0035.13
2021-09-08 17:40:00,,0833.1,5.00,0.00,29.5,27.9,00.0,38.6,31.3,19.1,0001.2,0037.68,0059.63,0035.11
2021-09-08 17:41:00,,0833.1,5.01,0.00,29.5,28.2,00.0,38.6,31.4,18.9,0001.5,0037.66,0059.46,0035.11
2021-09-08 17:42:00,,0833.1,5.01,0.00,29.6,28.5,00.0,38.6,31.4,19.0,0001.7,0037.55,0059.50,0035.05
2021-09-08 17:43:00,,0833.1,4.99,0.00,29.6,27.7,00.0,38.6,31.2,19.1,0001.7,0037.47,0060.06,0034.99
2021-09-08 17:44:00,,0833.1,5.00,0.00,29.5,26.1,00.0,38.6,30.8,19.4,0001.5,0037.47,0058.46,0034.97
2021-09-08 17:45:00,,0833.0,5.01,0.00,29.3,26.1,00.0,38.5,30.8,19.9,0001.4,0037.36,0058.08,0034.91
2021-09-08 17:46:00,,0833.0,4.99,0.00,29.3,26.5,00.0,38.5,30.9,19.7,0001.5,0037.29,0057.41,0034.86
2021-09-08 17:47:00,,0833.1,5.01,0.00,29.3,27.0,00.0,38.5,31.0,19.9,0001.5,0037.32,0056.92,0034.83
2021-09-08 17:48:00,,0833.1,4.99,0.00,29.3,27.4,00.0,38.5,31.1,20.0,0001.7,0037.39,0056.98,0034.84
2021-09-08 17:49:00,,0833.1,5.00,0.00,29.4,27.8,00.0,38.5,31.2,19.6,0001.5,0037.38,0056.35,0034.84
2021-09-08 17:50:00,,0833.0,5.00,0.00,29.4,28.1,00.0,38.5,31.2,19.7,0001.5,0037.35,0056.17,0034.82
2021-09-08 17:51:00,,0833.1,5.01,0.00,29.5,28.3,00.0,38.5,31.3,20.0,0001.6,0037.32,0055.50,0034.78
2021-09-08 17:52:00,,0833.0,5.00,0.00,29.5,28.5,00.0,38.5,31.4,20.1,0001.5,0037.33,0056.21,0034.76
2021-09-08 17:53:00,,0833.0,5.00,0.00,29.6,28.7,00.0,38.5,31.5,19.8,0001.4,0037.39,0057.20,0034.79
2021-09-08 17:54:00,,0832.9,4.99,0.00,29.6,28.2,00.0,38.5,31.3,19.5,0001.2,0037.47,0056.99,0034.86
2021-09-08 17:55:00,,0832.8,5.00,0.00,29.5,26.5,00.0,38.5,31.0,19.2,0001.3,0037.42,0056.48,0034.86
2021-09-08 17:56:00,,0832.8,5.01,0.00,29.4,26.1,00.0,38.5,30.8,19.4,0001.3,0037.43,0055.69,0034.83
2021-09-08 17:57:00,,0832.9,4.98,0.00,29.3,26.5,00.0,38.5,30.9,19.6,0001.5,0037.51,0058.19,0034.84
2021-09-08 17:58:00,,0832.8,5.01,0.00,29.3,26.9,00.0,38.4,31.0,20.0,0001.5,0037.54,0059.33,0034.84
2021-09-08 17:59:00,,0832.8,5.00,0.00,29.3,27.3,00.0,38.4,31.1,20.2,0001.6,0037.57,0061.07,0034.88
